FW3983 Weather Reports


time (UTC)temp
F
wind
direction
speed
knots
gust
knots
rain 1hr
in
rain 24hr
in
rain mn
in
humidity
%
barometer
mb
20260505064547 58 190 0.0 0.0 0.00 0.00 0.00 63 1042.7
20260505063051 59 190 0.0 0.9 0.00 0.00 0.00 63 1042.7
20260505061547 58 190 0.0 1.7 0.00 0.00 0.00 64 1042.7
20260505060058 58 355 0.0 0.0 0.00 0.00 0.00 62 1042.7
20260505054546 58 355 0.0 0.0 0.00 0.00 0.00 61 1042.7
20260505053045 59 355 0.0 0.0 0.00 0.00 0.00 59 1042.7
20260505051548 60 355 0.0 0.0 0.00 0.00 0.00 59 1042.7
20260505041553 63 355 0.0 0.9 0.00 0.00 0.00 53 1042.7
20260505040047 64 355 0.0 1.7 0.00 0.00 0.00 51 1042.7
20260505034542 65 355 0.0 0.9 0.00 0.00 0.00 50 1042.7
20260505033041 66 355 0.0 0.0 0.00 0.00 0.00 48 1042.7
20260505031540 67 355 0.0 0.0 0.00 0.00 0.00 45 1042.7
20260505030053 68 355 0.0 0.0 0.00 0.00 0.00 43 1042.7
20260505024543 68 355 0.0 0.0 0.00 0.00 0.00 42 1042.7
20260505023038 69 355 0.0 0.0 0.00 0.00 0.00 43 1042.7
20260505021537 69 355 0.0 0.0 0.00 0.00 0.00 45 1042.7
20260505020040 70 355 0.0 0.0 0.00 0.00 0.00 46 1042.7
20260505014556 70 355 0.0 0.9 0.00 0.00 0.00 44 1042.7
20260505013039 71 355 0.0 0.9 0.00 0.00 0.00 45 1042.7
20260505011539 72 355 0.0 1.7 0.00 0.00 0.00 39 1042.7
20260505010031 74 346 0.0 1.7 0.00 0.00 0.00 39 1042.7
20260505004543 76 346 0.0 1.7 0.00 0.00 0.00 38 1042.7
20260505003049 77 350 0.0 2.6 0.00 0.00 0.00 35 1042.7
20260505001530 80 292 0.0 2.6 0.00 0.00 0.00 32 1042.7
20260505000034 80 213 0.0 2.6 0.00 0.00 0.00 30 1042.7
20260504234528 79 232 0.0 0.9 0.00 0.00 0.00 29 1042.7
20260504233029 79 235 0.0 4.3 0.00 0.00 0.00 28 1042.7
20260504231527 80 216 1.7 5.2 0.00 0.00 0.00 28 1042.7
20260504230025 80 207 0.9 5.2 0.00 0.00 0.00 29 1042.7
20260504224522 79 211 1.7 6.1 0.00 0.00 0.00 31 1042.7
20260504223020 79 175 0.9 4.3 0.00 0.00 0.00 31 1042.7
20260504221522 79 193 0.0 5.2 0.00 0.00 0.00 35 1042.7
20260504220018 78 256 0.9 3.5 0.00 0.00 0.00 34 1042.7
20260504214519 78 188 0.9 5.2 0.00 0.00 0.00 34 1042.7
20260504213023 78 190 1.7 4.3 0.00 0.00 0.00 33 1042.7
20260504211529 78 227 0.0 4.3 0.00 0.00 0.00 34 1042.7
20260504210016 78 266 0.0 4.3 0.00 0.00 0.00 32 1042.7
20260504204518 77 245 1.7 7.0 0.00 0.00 0.00 28 1042.7
20260504203012 77 211 1.7 6.1 0.00 0.00 0.00 26 1042.7
20260504201508 77 212 0.0 5.2 0.00 0.00 0.00 26 1042.7
20260504200007 76 250 0.9 3.5 0.00 0.00 0.00 31 1042.7
20260504194605 75 355 0.0 2.6 0.00 0.00 0.00 33 1042.7
20260504194503 75 355 0.0 2.6 0.00 0.00 0.00 34 1042.7
20260504193109 74 194 0.9 1.7 0.00 0.00 0.00 33 1042.7
20260504191611 73 329 0.0 2.6 0.00 0.00 0.00 36 1042.7
20260504190108 72 5 0.9 3.5 0.00 0.00 0.00 34 1042.7
20260504184556 73 115 0.0 3.5 0.00 0.00 0.00 35 1042.7
20260504183055 74 261 0.9 3.5 0.00 0.00 0.00 32 1042.7
20260504181600 73 315 0.0 2.6 0.00 0.00 0.00 33 1042.7
20260504180053 73 288 0.0 0.0 0.00 0.00 0.00 34 1042.7
20260504174549 73 255 0.0 0.0 0.00 0.00 0.00 32 1042.7
20260504173051 71 271 0.0 0.0 0.00 0.00 0.00 36 1042.7
20260504171543 69 262 0.0 0.0 0.00 0.00 0.00 40 1042.7
20260504081541 57 335 0.0 0.0 0.00 0.00 0.00 54 1042.7